Location: Bidart
(43.4376°N, 1.5913°W)
Time: 04:02:32
(UTC+00:00)

USA 229 DEB - Pass Details

Date: 19 April 2026
Orbit: 844 x 1364 km, 63.4° (Epoch: 10 January)

Event Time Altitude Azimuth Distance (km) Brightness Sun altitude
Rises 19:49:02 0° 290° (WNW) 3,640 8.7 -10.1°
Reaches altitude 10° 19:52:44 10° 312° (NW) 2,792 7.3 -10.7°
Maximum altitude 19:56:34 16° 348° (NNW) 2,495 6.2 -11.3°
Drops below altitude 10° 20:00:40 10° 24° (NNE) 3,016 6.1 -12.0°
Sets 20:04:56 0° 45° (NE) 4,094 6.6 -12.6°
